Tracking 26922 objects as of 31-Jan-2023
HD Live streaming from Space Station
objects crossing your sky now

CZ-6A DEB

Track CZ-6A DEB now!
10-day predictions


NORAD ID: 54331
Int'l Code: 2022-151CA
Perigee: 835.4 km
Apogee: 1,018.3 km
Inclination: 98.8 °
Period: 103.4 minutes
Semi major axis: 7297 km
RCS: Unknown
Launch date: November 11, 2022
Source: People's Republic of China (PRC)
Launch site: Taiyaun Space Center, China (TSC)

Note: This is SATELLITE DEBRIS
Your satellite tracking list
Your tracking list is empty




NASA's NSSDC Master Catalog

Two Line Element Set (TLE):
1 54331U 22151CA  23031.47268056  .00000504  00000-0  39716-3 0  9992
2 54331  98.7990  37.4751 0125293 227.1555 131.9025 13.92547245 10640
Source of the keplerian elements: AFSPC